QPF
0.02 0.02 0.02 0.01 0.01 0.01 0.01 0.01 0.01 0.01 0.01 0.01 0.01 0.01 0.00 0.00 0.00 0.00 0.00 0.00 0.00 0.01 0.01 0.01 0.01 0.01 0.01 0.02 0.02 0.02 0.03 0.03 0.03 0.02 0.02 0.01 0.02 0.02 0.03 0.03 0.04 0.04 0.03
0.01 0.02 0.02 0.01 0.01 0.01 0.00 0.01 0.01 0.01 0.01 0.01 0.01 0.01 0.01 0.00 0.00 0.00 0.00 0.00 0.00 0.01 0.01 0.01 0.01 0.00 0.00 0.01 0.01 0.01 0.02 0.02 0.02 0.02 0.02 0.02 0.02 0.02 0.02 0.02 0.02 0.03 0.02
0.01 0.01 0.01 0.01 0.01 0.01 0.01 0.01 0.01 0.01 0.01 0.01 0.01 0.01 0.01 0.01 0.00 0.01 0.01 0.01 0.01 0.01 0.01 0.01 0.01 0.01 0.01 0.01 0.01 0.01 0.01 0.01 0.01 0.01 0.02 0.02 0.02 0.02 0.03 0.03 0.02 0.02 0.02
0.00 0.01 0.02 0.01 0.01 0.01 0.02 0.01 0.01 0.01 0.01 0.02 0.02 0.02 0.01 0.01 0.01 0.01 0.01 0.00 0.01 0.01 0.01 0.01 0.01 0.01 0.01 0.01 0.01 0.01 0.01 0.01 0.01 0.01 0.02 0.02 0.02 0.01 0.02 0.03 0.03 0.02 0.02
0.00 0.01 0.02 0.02 0.02 0.02 0.02 0.02 0.01 0.01 0.01 0.01 0.02 0.03 0.02 0.02 0.02 0.02 0.01 0.00 0.00 0.00 0.00 0.00 0.00 0.00 0.01 0.01 0.01 0.01 0.01 0.01 0.01 0.01 0.01 0.01 0.01 0.01 0.01 0.01 0.02 0.02 0.02
0.01 0.00 0.01 0.01 0.02 0.02 0.01 0.01 0.01 0.01 0.01 0.01 0.01 0.02 0.03 0.03 0.03 0.03 0.02 0.01 0.00 0.00 0.00 0.00 0.00 0.00 0.00 0.01 0.01 0.01 0.01 0.01 0.01 0.01 0.01 0.01 0.01 0.01 0.01 0.00 0.01 0.01 0.02
0.01 0.01 0.00 0.00 0.00 0.01 0.01 0.01 0.01 0.01 0.01 0.01 0.01 0.02 0.02 0.03 0.03 0.03 0.03 0.01 0.00 0.00 0.00 0.00 0.00 0.00 0.00 0.00 0.00 0.01 0.01 0.01 0.01 0.01 0.01 0.01 0.01 0.01 0.01 0.01 0.01 0.01 0.01
0.01 0.01 0.01 0.00 0.00 0.00 0.00 0.00 0.01 0.01 0.01 0.01 0.01 0.02 0.02 0.02 0.02 0.02 0.02 0.02 0.01 0.00 0.00 0.00 0.00 0.00 0.00 0.00 0.01 0.01 0.00 0.00 0.00 0.00 0.01 0.01 0.01 0.01 0.01 0.01 0.01 0.01 0.02
0.01 0.01 0.00 0.00 0.00 0.00 0.00 0.00 0.00 0.01 0.01 0.00 0.01 0.01 0.02 0.02 0.02 0.02 0.01 0.01 0.01 0.00 0.00 0.00 0.00 0.00 0.00 0.01 0.01 0.00 0.00 0.00 0.00 0.00 0.01 0.01 0.01 0.01 0.02 0.02 0.02 0.03 0.02
0.00 0.00 0.00 0.00 0.00 0.00 0.00 0.00 0.00 0.00 0.00 0.00 0.01 0.01 0.01 0.01 0.02 0.02 0.02 0.01 0.01 0.01 0.00 0.00 0.00 0.00 0.01 0.01 0.01 0.00 0.01 0.00 0.00 0.00 0.01 0.01 0.01 0.01 0.02 0.02 0.02 0.02 0.02
0.00 0.00 0.00 0.00 0.00 0.00 0.00 0.00 0.00 0.00 0.00 0.00 0.00 0.01 0.01 0.01 0.01 0.02 0.02 0.01 0.01 0.01 0.01 0.00 0.00 0.00 0.01 0.01 0.01 0.01 0.01 0.01 0.01 0.01 0.01 0.01 0.01 0.01 0.01 0.01 0.01 0.01 0.02
0.01 0.00 0.00 0.00 0.00 0.00 0.00 0.00 0.00 0.00 0.00 0.00 0.00 0.01 0.01 0.01 0.01 0.01 0.01 0.01 0.01 0.01 0.01 0.00 0.00 0.01 0.01 0.01 0.01 0.01 0.01 0.01 0.01 0.01 0.01 0.01 0.01 0.01 0.00 0.00 0.00 0.01 0.01
0.01 0.01 0.00 0.00 0.00 0.00 0.00 0.00 0.00 0.00 0.00 0.00 0.00 0.00 0.01 0.01 0.01 0.01 0.01 0.01 0.01 0.02 0.02 0.02 0.02 0.01 0.01 0.01 0.01 0.01 0.01 0.01 0.01 0.01 0.01 0.01 0.01 0.00 0.00 0.00 0.01 0.01 0.01
0.01 0.01 0.00 0.00 0.00 0.00 0.00 0.00 0.00 0.00 0.00 0.00 0.00 0.00 0.00 0.00 0.01 0.01 0.01 0.01 0.01 0.01 0.01 0.02 0.01 0.01 0.01 0.01 0.01 0.01 0.01 0.01 0.01 0.01 0.01 0.00 0.00 0.00 0.00 0.00 0.01 0.01 0.01
0.01 0.01 0.01 0.00 0.00 0.00 0.00 0.00 0.00 0.00 0.00 0.00 0.00 0.00 0.01 0.01 0.01 0.01 0.01 0.01 0.01 0.01 0.01 0.01 0.01 0.01 0.01 0.01 0.01 0.01 0.01 0.01 0.01 0.01 0.01 0.00 0.00 0.01 0.01 0.01 0.01 0.01 0.01
0.01 0.01 0.01 0.01 0.01 0.00 0.00 0.00 0.00 0.00 0.00 0.00 0.00 0.01 0.01 0.01 0.01 0.01 0.01 0.01 0.01 0.01 0.01 0.01 0.01 0.01 0.01 0.01 0.01 0.01 0.01 0.01 0.01 0.01 0.01 0.01 0.01 0.01 0.01 0.01 0.01 0.01 0.01
0.01 0.01 0.01 0.01 0.01 0.01 0.01 0.01 0.01 0.01 0.01 0.01 0.00 0.01 0.01 0.01 0.01 0.01 0.01 0.01 0.01 0.01 0.01 0.01 0.01 0.01 0.01 0.01 0.01 0.01 0.01 0.01 0.01 0.01 0.01 0.01 0.01 0.01 0.01 0.01 0.01 0.01 0.01
0.00 0.01 0.01 0.01 0.01 0.01 0.01 0.01 0.01 0.01 0.01 0.01 0.01 0.01 0.01 0.01 0.01 0.01 0.01 0.01 0.01 0.01 0.01 0.01 0.01 0.01 0.01 0.01 0.01 0.01 0.01 0.01 0.01 0.01 0.01 0.01 0.01 0.01 0.01 0.01 0.01 0.01 0.02
0.01 0.00 0.00 0.00 0.01 0.01 0.01 0.01 0.01 0.01 0.01 0.01 0.00 0.00 0.00 0.00 0.01 0.00 0.00 0.01 0.01 0.01 0.01 0.01 0.01 0.01 0.01 0.01 0.02 0.02 0.02 0.02 0.02 0.02 0.02 0.02 0.01 0.02 0.02 0.02 0.01 0.02 0.02
0.01 0.01 0.01 0.01 0.01 0.01 0.01 0.01 0.02 0.01 0.01 0.01 0.01 0.00 0.00 0.00 0.00 0.00 0.00 0.00 0.01 0.01 0.01 0.01 0.01 0.01 0.02 0.02 0.02 0.02 0.02 0.02 0.02 0.02 0.02 0.02 0.02 0.02 0.02 0.02 0.02 0.02 0.02
0.01 0.01 0.01 0.01 0.01 0.01 0.01 0.01 0.01 0.01 0.01 0.01 0.01 0.01 0.01 0.01 0.01 0.01 0.01 0.01 0.02 0.02 0.02 0.02 0.02 0.01 0.01 0.01 0.02 0.02 0.02 0.03 0.02 0.02 0.02 0.02 0.03 0.03 0.02 0.02 0.02 0.03 0.03
0.01 0.01 0.01 0.01 0.01 0.01 0.01 0.01 0.01 0.01 0.01 0.01 0.01 0.01 0.01 0.01 0.01 0.01 0.01 0.01 0.02 0.02 0.02 0.02 0.02 0.01 0.02 0.02 0.02 0.02 0.02 0.02 0.02 0.02 0.02 0.02 0.03 0.03 0.03 0.03 0.03 0.03 0.04
0.01 0.01 0.01 0.01 0.01 0.01 0.01 0.01 0.01 0.01 0.00 0.00 0.00 0.00 0.00 0.00 0.01 0.01 0.01 0.01 0.01 0.01 0.01 0.01 0.01 0.02 0.01 0.02 0.02 0.02 0.03 0.03 0.02 0.03 0.02 0.02 0.03 0.03 0.04 0.04 0.04 0.03 0.04
0.01 0.01 0.01 0.01 0.01 0.01 0.01 0.00 0.00 0.00 0.00 0.00 0.00 0.00 0.00 0.00 0.00 0.00 0.01 0.01 0.01 0.01 0.01 0.01 0.01 0.01 0.01 0.02 0.02 0.02 0.02 0.02 0.02 0.02 0.02 0.03 0.03 0.03 0.04 0.04 0.04 0.04 0.04
0.01 0.01 0.01 0.01 0.01 0.01 0.01 0.01 0.01 0.01 0.00 0.00 0.00 0.00 0.00 0.00 0.01 0.01 0.01 0.01 0.01 0.01 0.01 0.01 0.01 0.01 0.01 0.01 0.02 0.02 0.02 0.02 0.02 0.02 0.02 0.02 0.03 0.03 0.03 0.03 0.03 0.04 0.04
0.01 0.01 0.01 0.01 0.01 0.01 0.01 0.01 0.01 0.01 0.00 0.00 0.00 0.00 0.00 0.01 0.01 0.01 0.01 0.01 0.01 0.01 0.01 0.01 0.01 0.01 0.01 0.01 0.01 0.01 0.02 0.02 0.02 0.02 0.02 0.02 0.02 0.02 0.02 0.02 0.02 0.03 0.03
MSLP
1012.52 1012.83 1013.18 1013.54 1013.89 1014.23 1014.56 1014.89 1015.25 1015.64 1016.09 1016.57 1017.08 1017.58 1018.06 1018.49 1018.85 1019.17 1019.45 1019.72 1019.99 1020.30 1020.64 1020.98 1021.32 1021.58 1021.75 1021.76 1021.61 1021.28 1020.82 1020.25 1019.66 1019.11 1018.66 1018.38 1018.31 1018.45 1018.80 1019.32 1019.98 1020.73 1021.51
1012.31 1012.56 1012.85 1013.17 1013.49 1013.80 1014.10 1014.41 1014.76 1015.14 1015.57 1016.03 1016.53 1017.01 1017.48 1017.90 1018.27 1018.60 1018.89 1019.19 1019.50 1019.85 1020.24 1020.65 1021.06 1021.43 1021.71 1021.85 1021.84 1021.66 1021.33 1020.89 1020.39 1019.90 1019.48 1019.19 1019.07 1019.15 1019.43 1019.88 1020.47 1021.16 1021.90
1012.14 1012.36 1012.62 1012.90 1013.18 1013.46 1013.74 1014.03 1014.34 1014.70 1015.09 1015.53 1015.99 1016.45 1016.89 1017.30 1017.66 1017.99 1018.29 1018.60 1018.93 1019.30 1019.71 1020.17 1020.63 1021.07 1021.45 1021.71 1021.84 1021.81 1021.63 1021.33 1020.95 1020.56 1020.20 1019.94 1019.82 1019.87 1020.10 1020.49 1021.02 1021.66 1022.37
1012.01 1012.21 1012.45 1012.71 1012.97 1013.22 1013.47 1013.73 1014.01 1014.33 1014.68 1015.07 1015.49 1015.91 1016.32 1016.70 1017.05 1017.37 1017.67 1017.98 1018.31 1018.69 1019.11 1019.59 1020.08 1020.57 1021.02 1021.37 1021.61 1021.72 1021.68 1021.53 1021.29 1021.00 1020.73 1020.52 1020.43 1020.47 1020.67 1021.03 1021.53 1022.13 1022.80
1011.90 1012.10 1012.33 1012.57 1012.81 1013.05 1013.27 1013.50 1013.74 1014.02 1014.33 1014.66 1015.03 1015.40 1015.77 1016.12 1016.45 1016.75 1017.05 1017.35 1017.68 1018.05 1018.48 1018.95 1019.46 1019.97 1020.46 1020.89 1021.22 1021.43 1021.52 1021.49 1021.36 1021.19 1021.00 1020.85 1020.80 1020.85 1021.05 1021.39 1021.86 1022.44 1023.10
1011.75 1011.96 1012.19 1012.43 1012.66 1012.88 1013.08 1013.29 1013.50 1013.73 1014.00 1014.28 1014.59 1014.91 1015.23 1015.54 1015.84 1016.12 1016.41 1016.70 1017.02 1017.39 1017.81 1018.28 1018.79 1019.32 1019.83 1020.30 1020.69 1020.98 1021.16 1021.22 1021.20 1021.11 1021.00 1020.91 1020.89 1020.96 1021.16 1021.50 1021.96 1022.53 1023.18
1011.52 1011.74 1011.98 1012.21 1012.44 1012.65 1012.85 1013.04 1013.23 1013.44 1013.65 1013.89 1014.14 1014.41 1014.68 1014.94 1015.20 1015.46 1015.73 1016.02 1016.34 1016.70 1017.12 1017.59 1018.10 1018.63 1019.16 1019.65 1020.08 1020.42 1020.66 1020.79 1020.84 1020.82 1020.76 1020.72 1020.72 1020.81 1021.02 1021.35 1021.81 1022.38 1023.03
1011.18 1011.40 1011.64 1011.88 1012.10 1012.32 1012.52 1012.70 1012.89 1013.06 1013.25 1013.44 1013.65 1013.85 1014.07 1014.29 1014.51 1014.74 1014.99 1015.27 1015.59 1015.97 1016.39 1016.86 1017.38 1017.92 1018.45 1018.96 1019.41 1019.79 1020.07 1020.25 1020.35 1020.37 1020.36 1020.34 1020.36 1020.46 1020.66 1020.99 1021.44 1022.01 1022.66
1010.72 1010.93 1011.15 1011.38 1011.61 1011.82 1012.03 1012.22 1012.41 1012.58 1012.74 1012.90 1013.06 1013.22 1013.38 1013.55 1013.74 1013.94 1014.18 1014.46 1014.78 1015.16 1015.60 1016.09 1016.62 1017.17 1017.72 1018.25 1018.72 1019.12 1019.44 1019.66 1019.79 1019.85 1019.87 1019.87 1019.90 1020.00 1020.20 1020.51 1020.94 1021.49 1022.15
1010.14 1010.31 1010.51 1010.72 1010.94 1011.16 1011.38 1011.58 1011.77 1011.95 1012.10 1012.24 1012.37 1012.48 1012.60 1012.73 1012.89 1013.07 1013.29 1013.57 1013.90 1014.30 1014.76 1015.27 1015.81 1016.39 1016.96 1017.51 1018.01 1018.44 1018.79 1019.05 1019.22 1019.32 1019.36 1019.39 1019.43 1019.53 1019.70 1019.99 1020.40 1020.93 1021.57
1009.44 1009.57 1009.72 1009.91 1010.11 1010.33 1010.56 1010.78 1010.98 1011.16 1011.32 1011.45 1011.55 1011.64 1011.73 1011.83 1011.96 1012.13 1012.35 1012.63 1012.97 1013.39 1013.87 1014.40 1014.97 1015.57 1016.17 1016.75 1017.28 1017.75 1018.14 1018.44 1018.66 1018.80 1018.89 1018.94 1019.00 1019.09 1019.26 1019.52 1019.90 1020.39 1020.99
1008.65 1008.72 1008.83 1008.97 1009.16 1009.37 1009.60 1009.83 1010.05 1010.24 1010.40 1010.53 1010.62 1010.70 1010.78 1010.87 1010.99 1011.15 1011.37 1011.66 1012.03 1012.46 1012.96 1013.52 1014.11 1014.73 1015.36 1015.96 1016.53 1017.04 1017.48 1017.83 1018.11 1018.31 1018.44 1018.53 1018.62 1018.73 1018.89 1019.13 1019.47 1019.92 1020.47
1007.79 1007.80 1007.85 1007.96 1008.12 1008.31 1008.54 1008.77 1008.99 1009.19 1009.36 1009.50 1009.60 1009.68 1009.77 1009.86 1009.99 1010.17 1010.41 1010.72 1011.10 1011.56 1012.08 1012.65 1013.26 1013.89 1014.53 1015.16 1015.76 1016.31 1016.80 1017.21 1017.55 1017.81 1018.01 1018.16 1018.29 1018.42 1018.58 1018.81 1019.12 1019.52 1020.03
1006.85 1006.81 1006.82 1006.89 1007.02 1007.20 1007.41 1007.63 1007.86 1008.06 1008.24 1008.39 1008.51 1008.61 1008.72 1008.84 1009.00 1009.21 1009.48 1009.83 1010.24 1010.72 1011.25 1011.83 1012.45 1013.09 1013.73 1014.37 1014.98 1015.56 1016.09 1016.56 1016.96 1017.30 1017.56 1017.78 1017.96 1018.12 1018.30 1018.53 1018.81 1019.18 1019.64
1005.84 1005.77 1005.76 1005.80 1005.91 1006.06 1006.26 1006.47 1006.69 1006.89 1007.07 1007.23 1007.37 1007.51 1007.66 1007.83 1008.04 1008.30 1008.63 1009.01 1009.46 1009.96 1010.51 1011.09 1011.70 1012.33 1012.97 1013.60 1014.22 1014.81 1015.37 1015.88 1016.34 1016.74 1017.07 1017.35 1017.59 1017.80 1018.01 1018.25 1018.53 1018.87 1019.30
1004.76 1004.69 1004.67 1004.71 1004.80 1004.94 1005.12 1005.31 1005.51 1005.71 1005.89 1006.07 1006.24 1006.41 1006.61 1006.85 1007.13 1007.46 1007.85 1008.29 1008.78 1009.31 1009.87 1010.45 1011.06 1011.66 1012.28 1012.89 1013.49 1014.09 1014.65 1015.19 1015.69 1016.13 1016.53 1016.87 1017.16 1017.42 1017.67 1017.92 1018.21 1018.55 1018.96
1003.62 1003.57 1003.58 1003.63 1003.73 1003.86 1004.02 1004.20 1004.38 1004.56 1004.74 1004.93 1005.13 1005.35 1005.61 1005.91 1006.27 1006.68 1007.14 1007.64 1008.18 1008.75 1009.33 1009.91 1010.50 1011.09 1011.67 1012.25 1012.83 1013.41 1013.97 1014.52 1015.03 1015.51 1015.94 1016.32 1016.66 1016.97 1017.25 1017.54 1017.84 1018.19 1018.60
1002.43 1002.45 1002.50 1002.59 1002.70 1002.84 1002.99 1003.15 1003.31 1003.48 1003.65 1003.85 1004.07 1004.34 1004.65 1005.03 1005.46 1005.95 1006.49 1007.06 1007.65 1008.25 1008.85 1009.45 1010.02 1010.59 1011.14 1011.69 1012.25 1012.79 1013.34 1013.87 1014.39 1014.88 1015.33 1015.74 1016.11 1016.45 1016.76 1017.08 1017.41 1017.78 1018.21
1001.23 1001.33 1001.45 1001.59 1001.74 1001.90 1002.05 1002.19 1002.34 1002.49 1002.65 1002.85 1003.10 1003.40 1003.77 1004.20 1004.70 1005.26 1005.87 1006.50 1007.15 1007.79 1008.41 1009.01 1009.58 1010.13 1010.67 1011.19 1011.72 1012.24 1012.76 1013.28 1013.78 1014.27 1014.72 1015.14 1015.52 1015.88 1016.22 1016.56 1016.92 1017.32 1017.77
1000.05 1000.24 1000.45 1000.65 1000.85 1001.02 1001.18 1001.32 1001.45 1001.59 1001.75 1001.95 1002.21 1002.54 1002.94 1003.43 1003.98 1004.60 1005.26 1005.94 1006.63 1007.30 1007.94 1008.56 1009.13 1009.68 1010.20 1010.71 1011.22 1011.72 1012.22 1012.72 1013.21 1013.68 1014.13 1014.54 1014.93 1015.29 1015.65 1016.00 1016.39 1016.81 1017.29
998.90 999.19 999.48 999.76 1000.00 1000.21 1000.38 1000.52 1000.64 1000.77 1000.93 1001.13 1001.39 1001.74 1002.17 1002.69 1003.29 1003.94 1004.64 1005.35 1006.06 1006.76 1007.41 1008.04 1008.62 1009.17 1009.70 1010.21 1010.71 1011.21 1011.70 1012.19 1012.67 1013.12 1013.56 1013.96 1014.34 1014.70 1015.06 1015.42 1015.82 1016.27 1016.78
997.80 998.18 998.55 998.88 999.17 999.41 999.59 999.74 999.87 999.99 1000.14 1000.35 1000.62 1000.98 1001.44 1001.97 1002.59 1003.26 1003.97 1004.70 1005.42 1006.12 1006.79 1007.42 1008.01 1008.57 1009.11 1009.63 1010.14 1010.65 1011.15 1011.64 1012.12 1012.57 1012.99 1013.39 1013.76 1014.11 1014.47 1014.84 1015.25 1015.70 1016.23
996.72 997.17 997.60 997.98 998.31 998.57 998.77 998.92 999.05 999.19 999.35 999.56 999.85 1000.22 1000.69 1001.24 1001.86 1002.53 1003.24 1003.97 1004.69 1005.39 1006.05 1006.69 1007.29 1007.86 1008.42 1008.96 1009.50 1010.03 1010.55 1011.06 1011.54 1012.00 1012.43 1012.83 1013.19 1013.54 1013.89 1014.26 1014.67 1015.13 1015.67
995.63 996.13 996.59 997.01 997.35 997.63 997.84 998.01 998.15 998.30 998.48 998.72 999.02 999.42 999.90 1000.45 1001.08 1001.75 1002.46 1003.17 1003.88 1004.56 1005.22 1005.86 1006.46 1007.05 1007.63 1008.20 1008.77 1009.33 1009.89 1010.42 1010.94 1011.42 1011.86 1012.27 1012.64 1013.00 1013.35 1013.71 1014.12 1014.57 1015.10
994.50 995.02 995.49 995.91 996.26 996.55 996.77 996.95 997.12 997.29 997.50 997.77 998.11 998.53 999.04 999.61 1000.25 1000.93 1001.62 1002.33 1003.02 1003.69 1004.34 1004.97 1005.59 1006.19 1006.79 1007.39 1007.99 1008.59 1009.18 1009.76 1010.30 1010.82 1011.29 1011.72 1012.11 1012.47 1012.83 1013.20 1013.60 1014.04 1014.55
993.33 993.83 994.30 994.70 995.05 995.33 995.56 995.76 995.95 996.16 996.41 996.73 997.11 997.58 998.12 998.73 999.38 1000.07 1000.77 1001.47 1002.16 1002.83 1003.47 1004.10 1004.72 1005.33 1005.95 1006.58 1007.21 1007.84 1008.47 1009.08 1009.67 1010.22 1010.72 1011.18 1011.60 1011.99 1012.36 1012.73 1013.12 1013.56 1014.04
Thickness
5512 5511 5509 5508 5507 5507 5506 5505 5504 5503 5503 5502 5501 5500 5499 5498 5496 5495 5493 5491 5490 5487 5486 5484 5483 5480 5478 5476 5474 5472 5469 5467 5468 5471 5470 5470 5469 5469 5469 5469 5469 5469 5469
5504 5502 5501 5500 5499 5498 5498 5498 5496 5495 5494 5493 5492 5491 5490 5489 5488 5486 5484 5483 5481 5479 5477 5476 5474 5473 5470 5468 5466 5463 5461 5459 5458 5459 5460 5459 5459 5459 5459 5459 5459 5460 5459
5495 5493 5492 5491 5491 5490 5489 5489 5488 5487 5486 5485 5484 5483 5482 5480 5479 5478 5476 5474 5472 5471 5469 5468 5466 5464 5462 5459 5457 5455 5453 5451 5449 5449 5450 5449 5448 5448 5448 5449 5449 5449 5450
5486 5484 5484 5483 5483 5482 5481 5480 5479 5478 5477 5476 5475 5474 5473 5472 5471 5469 5466 5465 5463 5462 5461 5459 5457 5456 5454 5451 5450 5448 5445 5443 5441 5440 5439 5439 5438 5438 5438 5438 5439 5439 5440
5477 5476 5475 5474 5473 5472 5472 5471 5470 5469 5468 5467 5466 5465 5464 5462 5462 5460 5458 5456 5455 5453 5452 5450 5449 5447 5446 5444 5442 5440 5437 5434 5432 5431 5430 5429 5429 5428 5428 5428 5428 5429 5430
5468 5467 5466 5465 5464 5463 5462 5461 5460 5459 5458 5458 5457 5456 5455 5454 5454 5453 5450 5448 5446 5445 5444 5442 5440 5439 5439 5437 5436 5433 5430 5427 5425 5423 5421 5420 5421 5419 5419 5419 5418 5419 5421
5459 5458 5457 5455 5454 5454 5453 5452 5451 5450 5449 5448 5447 5446 5445 5445 5445 5444 5442 5440 5438 5436 5435 5434 5433 5432 5430 5429 5427 5425 5423 5421 5420 5417 5415 5414 5413 5412 5411 5411 5409 5409 5410
5450 5448 5447 5446 5445 5444 5443 5442 5441 5440 5439 5439 5438 5437 5437 5437 5437 5436 5433 5431 5429 5428 5427 5426 5425 5424 5422 5421 5419 5416 5415 5413 5412 5411 5409 5408 5407 5406 5405 5404 5402 5401 5402
5441 5440 5439 5438 5436 5435 5434 5433 5432 5431 5430 5430 5430 5429 5428 5428 5428 5427 5425 5423 5421 5420 5419 5418 5417 5415 5416 5414 5411 5408 5407 5406 5405 5404 5403 5401 5401 5400 5398 5396 5394 5394 5395
5434 5432 5431 5430 5429 5428 5427 5425 5423 5422 5422 5421 5421 5420 5419 5419 5419 5418 5416 5414 5412 5411 5410 5410 5409 5408 5408 5406 5403 5401 5400 5399 5397 5396 5395 5394 5393 5392 5391 5390 5388 5386 5386
5426 5424 5423 5422 5421 5420 5418 5416 5414 5413 5412 5411 5411 5411 5410 5410 5409 5409 5408 5406 5404 5403 5402 5401 5401 5401 5400 5399 5397 5395 5394 5392 5389 5388 5386 5386 5385 5385 5384 5383 5381 5380 5380
5418 5417 5415 5414 5413 5412 5409 5407 5405 5404 5403 5402 5401 5401 5401 5401 5401 5400 5400 5398 5397 5395 5394 5394 5393 5393 5393 5392 5390 5389 5387 5384 5381 5379 5378 5378 5378 5378 5378 5377 5376 5375 5375
5410 5408 5407 5405 5404 5403 5401 5399 5397 5396 5395 5394 5393 5393 5392 5392 5392 5392 5391 5390 5389 5388 5387 5387 5386 5385 5384 5383 5382 5381 5378 5375 5373 5371 5371 5371 5371 5371 5370 5370 5369 5369 5369
5402 5400 5398 5396 5395 5394 5393 5392 5390 5388 5387 5386 5386 5385 5384 5384 5383 5383 5382 5382 5381 5380 5379 5379 5378 5376 5375 5374 5372 5370 5368 5366 5365 5364 5364 5363 5363 5363 5363 5363 5362 5362 5362
5394 5392 5390 5389 5388 5386 5385 5384 5384 5383 5382 5381 5379 5378 5377 5376 5377 5376 5374 5373 5372 5372 5370 5369 5368 5366 5365 5363 5361 5360 5359 5358 5357 5357 5356 5356 5356 5356 5357 5357 5356 5355 5354
5387 5384 5383 5381 5380 5378 5377 5376 5377 5376 5376 5375 5374 5372 5371 5371 5370 5369 5368 5367 5366 5365 5363 5361 5359 5358 5356 5355 5354 5352 5350 5349 5349 5349 5349 5349 5349 5350 5350 5350 5349 5349 5348
5380 5377 5375 5374 5372 5371 5370 5369 5368 5368 5368 5368 5367 5366 5365 5364 5363 5362 5361 5360 5359 5358 5355 5353 5352 5351 5350 5349 5347 5346 5344 5343 5342 5342 5342 5342 5342 5343 5343 5343 5343 5342 5342
5371 5370 5368 5366 5365 5364 5363 5362 5361 5359 5359 5358 5359 5359 5358 5357 5356 5354 5353 5352 5350 5350 5348 5347 5346 5345 5344 5343 5342 5340 5339 5338 5337 5336 5336 5336 5336 5336 5336 5336 5336 5336 5336
5363 5361 5360 5359 5358 5357 5356 5355 5353 5352 5351 5350 5350 5350 5350 5349 5348 5347 5346 5344 5343 5342 5341 5340 5340 5339 5338 5338 5337 5336 5335 5334 5332 5331 5331 5331 5331 5330 5330 5331 5331 5331 5330
5354 5355 5354 5352 5351 5350 5349 5348 5346 5345 5344 5343 5343 5343 5342 5341 5340 5339 5338 5337 5336 5336 5335 5334 5334 5333 5333 5332 5332 5331 5330 5329 5328 5327 5327 5326 5326 5326 5326 5326 5326 5325 5325
5347 5347 5347 5346 5345 5344 5342 5341 5340 5339 5338 5337 5336 5336 5336 5334 5333 5332 5332 5331 5331 5330 5329 5329 5329 5328 5328 5327 5327 5326 5325 5325 5324 5323 5323 5322 5322 5322 5322 5322 5321 5321 5320
5340 5339 5339 5339 5338 5337 5336 5335 5334 5332 5331 5330 5329 5329 5330 5328 5327 5326 5326 5326 5325 5325 5324 5324 5323 5323 5323 5323 5322 5322 5321 5321 5320 5320 5319 5318 5317 5318 5318 5318 5317 5317 5316
5333 5333 5332 5332 5331 5331 5330 5328 5327 5326 5325 5324 5323 5323 5323 5322 5321 5321 5321 5320 5320 5320 5319 5319 5319 5318 5318 5318 5318 5318 5317 5317 5317 5316 5315 5314 5314 5314 5314 5314 5313 5313 5313
5327 5326 5325 5325 5324 5323 5323 5322 5321 5320 5319 5318 5318 5317 5317 5316 5316 5316 5315 5315 5315 5315 5315 5315 5315 5315 5314 5314 5314 5314 5314 5314 5314 5313 5312 5312 5311 5311 5310 5310 5309 5309 5309
5321 5320 5319 5318 5318 5317 5316 5315 5314 5314 5313 5312 5312 5311 5311 5310 5310 5310 5310 5310 5310 5310 5310 5310 5310 5311 5311 5311 5311 5311 5311 5311 5311 5310 5310 5309 5309 5308 5307 5306 5306 5305 5305
5314 5313 5312 5312 5311 5311 5310 5309 5308 5307 5307 5306 5306 5305 5305 5305 5305 5305 5305 5305 5305 5305 5305 5306 5306 5307 5307 5307 5308 5308 5308 5308 5308 5308 5307 5307 5306 5305 5304 5303 5303 5302 5302